Weather in Slantsy

Russia / Saratov Oblast     52°10′54″N   43°35′05″E
temp.,
°C
wind,
m/s
gust,
m/s
humid.,
%
clouds,
%
prec.,
mm/h
press.,
hPa
HPBL,
m
10 may, mon
mon1001:00+6nnw61096100 5.1 1014436
04:00+6nnw51096100 6.1 1015465
07:00+6nnw61197100 1.6 1015401
10:00+8n71297100 3.4 1015372
13:00+11n81392100 0.7 1014522
16:00+14nne91689100 0.9 1014682
19:00+16nne111887100 1.1 1013600
22:00+14ne5894100 3.9 1016235
11 may, tue
tue1101:00+14ne71690100 0.6 1015430
04:00+13ne71583100 0.6 1016418
07:00+11sse4792100 0.1 1018400
10:00+9se5989100 2.1 1022744
13:00+14se68575 0.0 10231393
16:00+16se69518 0.0 10241994
19:00+15sse356512 0.0 1025313
22:00+10w227751 0.0 102711
12 may, wed
wed1201:00+10n367895 0.0 1026139
04:00+10ne51278100 0.0 1025368
07:00+9nne51097100 1.7 1023442
10:00+14e81488100 2.3 1020999
13:00+15se71182100 0.3 1020913
16:00+13s269286 0.4 1022332
19:00+14e2289100 0.0 102272
22:00+13ne3594100 0.1 1022119
13 may, thu
thu1301:00+14e41089100 0.0 1021239
04:00+13ene41185100 0.0 1020265
07:00+14e41279100 0.1 1020384
10:00+18se7117091 0.6 1020730
13:00+19se697280 0.3 10201124
16:00+20sse6973100 1.5 10201058
19:00+18se388387 0.3 1020241
22:00+17ese348399 0.3 102057
14 may, fri
fri1401:00+16ese398398 0.0 1020189
04:00+14se498137 0.0 1020154
07:00+15se49798 0.0 1021192
10:00+21se5859100 0.0 1020435
13:00+24se695085 0.0 1020879
16:00+25se6105118 0.0 10191298
19:00+23se5126178 0.0 1018349
22:00+18se5146811 0.0 1018243